When you browse on this site, cookies collect data to enhance your experience and personalize the content and advertising you see.
Visit our Privacy Policy to learn more. By continuing to use the site, you agree to this use of cookies and data.

Météo par heure à Kipungo

Ce jour, 12 Août, Mercredi

Heure Température Précipitation Vent Pression Humidité
00:00 +16°C° 0 mm 1 m/s 654 mmHg 46%
01:00 +15°C° 0 mm 1 m/s 653 mmHg 54%
02:00 +14°C° 0 mm 1 m/s 653 mmHg 58%
03:00 +14°C° 0 mm 1 m/s 653 mmHg 62%
04:00 +13°C° 0 mm 1 m/s 652 mmHg 66%
05:00 +13°C° 0 mm 1 m/s 653 mmHg 62%
06:00 +13°C° 0 mm 1 m/s 654 mmHg 58%
07:00 +13°C° 0 mm 1 m/s 654 mmHg 54%
08:00 +19°C° 0 mm 1 m/s 655 mmHg 41%
09:00 +24°C° 0 mm 1 m/s 656 mmHg 29%
10:00 +28°C° 0 mm 2 m/s 657 mmHg 16%
11:00 +30°C° 0 mm 2 m/s 657 mmHg 14%
12:00 +32°C° 0 mm 2 m/s 656 mmHg 12%
13:00 +35°C° 0 mm 2 m/s 656 mmHg 10%
14:00 +35°C° 0 mm 2 m/s 655 mmHg 10%
15:00 +35°C° 0 mm 2 m/s 655 mmHg 10%
16:00 +34°C° 0 mm 1 m/s 654 mmHg 10%
17:00 +30°C° 0 mm 1 m/s 654 mmHg 12%
18:00 +27°C° 0 mm 1 m/s 654 mmHg 15%
19:00 +24°C° 0 mm 1 m/s 654 mmHg 18%
20:00 +21°C° 0 mm 2 m/s 654 mmHg 21%
21:00 +20°C° 0 mm 2 m/s 654 mmHg 24%
22:00 +18°C° 0 mm 2 m/s 654 mmHg 27%
23:00 +17°C° 0 mm 2 m/s 654 mmHg 33%

Demain, 13 Août, Jeudi

Heure Température Précipitation Vent Pression Humidité
00:00 +16°C° 0 mm 1 m/s 653 mmHg 38%
01:00 +15°C° 0 mm 1 m/s 652 mmHg 43%
02:00 +14°C° 0 mm 1 m/s 652 mmHg 44%
03:00 +13°C° 0 mm 1 m/s 652 mmHg 45%
04:00 +13°C° 0 mm 1 m/s 652 mmHg 46%
05:00 +13°C° 0 mm 1 m/s 653 mmHg 43%
06:00 +13°C° 0 mm 1 m/s 653 mmHg 40%
07:00 +13°C° 0 mm 1 m/s 653 mmHg 37%
08:00 +19°C° 0 mm 1 m/s 654 mmHg 29%
09:00 +23°C° 0 mm 2 m/s 656 mmHg 21%
10:00 +28°C° 0 mm 3 m/s 657 mmHg 13%
11:00 +30°C° 0 mm 3 m/s 656 mmHg 11%
12:00 +33°C° 0 mm 3 m/s 656 mmHg 10%
13:00 +35°C° 0 mm 4 m/s 655 mmHg 8%
14:00 +35°C° 0 mm 3 m/s 655 mmHg 8%
15:00 +35°C° 0 mm 2 m/s 654 mmHg 8%
16:00 +35°C° 0 mm 1 m/s 654 mmHg 8%
17:00 +31°C° 0 mm 1 m/s 654 mmHg 10%
18:00 +28°C° 0 mm 1 m/s 653 mmHg 12%
19:00 +24°C° 0 mm 2 m/s 653 mmHg 15%
20:00 +23°C° 0 mm 2 m/s 653 mmHg 16%
21:00 +20°C° 0 mm 2 m/s 654 mmHg 18%
22:00 +19°C° 0 mm 2 m/s 654 mmHg 19%
23:00 +18°C° 0 mm 1 m/s 653 mmHg 22%

Après-demain, 14 Août, Vendredi

Heure Température Précipitation Vent Pression Humidité
00:00 +16°C° 0 mm 1 m/s 653 mmHg 24%
01:00 +14°C° 0 mm 0 m/s 652 mmHg 27%
02:00 +13°C° 0 mm 0 m/s 652 mmHg 27%
03:00 +12°C° 0 mm 0 m/s 651 mmHg 28%
04:00 +12°C° 0 mm 0 m/s 651 mmHg 28%
05:00 +12°C° 0 mm 0 m/s 652 mmHg 28%
06:00 +14°C° 0 mm 1 m/s 652 mmHg 27%
07:00 +14°C° 0 mm 1 m/s 653 mmHg 27%
08:00 +19°C° 0 mm 2 m/s 654 mmHg 22%
09:00 +24°C° 0 mm 3 m/s 655 mmHg 16%
10:00 +29°C° 0 mm 4 m/s 656 mmHg 10%
11:00 +31°C° 0 mm 3 m/s 655 mmHg 9%
12:00 +34°C° 0 mm 3 m/s 655 mmHg 8%
13:00 +37°C° 0 mm 2 m/s 654 mmHg 7%
14:00 +37°C° 0 mm 2 m/s 654 mmHg 7%
15:00 +36°C° 0 mm 1 m/s 653 mmHg 6%
16:00 +36°C° 0 mm 1 m/s 653 mmHg 6%
17:00 +32°C° 0 mm 1 m/s 653 mmHg 9%
18:00 +28°C° 0 mm 1 m/s 652 mmHg 11%
19:00 +24°C° 0 mm 2 m/s 652 mmHg 13%
20:00 +21°C° 0 mm 2 m/s 652 mmHg 22%
21:00 +19°C° 0 mm 2 m/s 652 mmHg 32%
22:00 +17°C° 0 mm 2 m/s 652 mmHg 41%
23:00 +16°C° 0 mm 1 m/s 651 mmHg 48%

15 Août, Samedi

Heure Température Précipitation Vent Pression Humidité
00:00 +15°C° 0 mm 1 m/s 651 mmHg 55%
01:00 +14°C° 0 mm 1 m/s 651 mmHg 61%
02:00 +13°C° 0 mm 1 m/s 650 mmHg 61%
03:00 +13°C° 0 mm 1 m/s 650 mmHg 61%
04:00 +13°C° 0 mm 1 m/s 650 mmHg 61%
05:00 +12°C° 0 mm 0 m/s 651 mmHg 57%
06:00 +12°C° 0 mm 0 m/s 651 mmHg 54%
07:00 +13°C° 0 mm 0 m/s 652 mmHg 51%
08:00 +20°C° 0 mm 1 m/s 653 mmHg 38%
09:00 +25°C° 0 mm 1 m/s 654 mmHg 26%
10:00 +30°C° 0 mm 1 m/s 655 mmHg 13%
11:00 +32°C° 0 mm 1 m/s 655 mmHg 11%
12:00 +35°C° 0 mm 1 m/s 654 mmHg 9%
13:00 +37°C° 0 mm 1 m/s 654 mmHg 7%
14:00 +36°C° 0 mm 1 m/s 653 mmHg 7%
15:00 +36°C° 0 mm 1 m/s 653 mmHg 6%
16:00 +36°C° 0 mm 1 m/s 652 mmHg 6%
17:00 +32°C° 0 mm 1 m/s 652 mmHg 9%
18:00 +28°C° 0 mm 1 m/s 652 mmHg 11%
19:00 +25°C° 0 mm 2 m/s 651 mmHg 13%
20:00 +23°C° 0 mm 2 m/s 651 mmHg 24%
21:00 +19°C° 0 mm 2 m/s 651 mmHg 35%
22:00 +17°C° 0 mm 2 m/s 651 mmHg 46%
23:00 +16°C° 0 mm 2 m/s 651 mmHg 51%

16 Août, Dimanche

Heure Température Précipitation Vent Pression Humidité
00:00 +15°C° 0 mm 2 m/s 650 mmHg 57%
01:00 +14°C° 0 mm 1 m/s 650 mmHg 62%
02:00 +14°C° 0 mm 1 m/s 650 mmHg 62%
03:00 +13°C° 0 mm 1 m/s 650 mmHg 62%
04:00 +13°C° 0 mm 1 m/s 650 mmHg 62%
05:00 +13°C° 0 mm 1 m/s 650 mmHg 57%
06:00 +14°C° 0 mm 1 m/s 651 mmHg 53%
07:00 +13°C° 0 mm 0 m/s 652 mmHg 48%
08:00 +20°C° 0 mm 1 m/s 653 mmHg 36%
09:00 +25°C° 0 mm 2 m/s 654 mmHg 24%
10:00 +29°C° 0 mm 2 m/s 655 mmHg 13%
11:00 +31°C° 0 mm 2 m/s 654 mmHg 11%
12:00 +35°C° 0 mm 2 m/s 654 mmHg 9%
13:00 +37°C° 0 mm 2 m/s 653 mmHg 7%
14:00 +37°C° 0 mm 2 m/s 653 mmHg 6%
15:00 +36°C° 0 mm 1 m/s 653 mmHg 6%
16:00 +36°C° 0 mm 1 m/s 652 mmHg 6%
17:00 +32°C° 0 mm 1 m/s 652 mmHg 8%
18:00 +29°C° 0 mm 1 m/s 652 mmHg 11%
19:00 +25°C° 0 mm 2 m/s 652 mmHg 13%
20:00 +21°C° 0 mm 2 m/s 651 mmHg 25%
21:00 +19°C° 0 mm 2 m/s 651 mmHg 37%
22:00 +17°C° 0 mm 2 m/s 651 mmHg 49%
23:00 +16°C° 0 mm 1 m/s 651 mmHg 57%

17 Août, Lundi

Heure Température Précipitation Vent Pression Humidité
00:00 +15°C° 0 mm 1 m/s 651 mmHg 64%
01:00 +12°C° 0 mm 0 m/s 650 mmHg 72%
02:00 +12°C° 0 mm 0 m/s 650 mmHg 70%
03:00 +13°C° 0 mm 1 m/s 650 mmHg 67%
04:00 +13°C° 0 mm 1 m/s 650 mmHg 65%
05:00 +14°C° 0 mm 1 m/s 651 mmHg 60%
06:00 +14°C° 0 mm 1 m/s 651 mmHg 55%
07:00 +15°C° 0 mm 1 m/s 652 mmHg 51%
08:00 +21°C° 0 mm 1 m/s 653 mmHg 39%
09:00 +26°C° 0 mm 2 m/s 654 mmHg 26%
10:00 +30°C° 0 mm 3 m/s 656 mmHg 14%
11:00 +34°C° 0 mm 2 m/s 655 mmHg 12%
12:00 +37°C° 0 mm 2 m/s 655 mmHg 9%
13:00 +39°C° 0 mm 1 m/s 655 mmHg 6%
14:00 +39°C° 0 mm 1 m/s 654 mmHg 6%
15:00 +37°C° 0 mm 1 m/s 654 mmHg 6%
16:00 +35°C° 0 mm 0 m/s 653 mmHg 6%
17:00 +33°C° 0 mm 1 m/s 653 mmHg 13%
18:00 +29°C° 0 mm 2 m/s 653 mmHg 19%
19:00 +23°C° 0 mm 4 m/s 653 mmHg 25%
20:00 +21°C° 0 mm 3 m/s 653 mmHg 33%
21:00 +19°C° 0 mm 3 m/s 652 mmHg 40%
22:00 +17°C° 0 mm 2 m/s 652 mmHg 48%
23:00 +17°C° 0 mm 2 m/s 652 mmHg 48%
Voir plus